Temp
23 22 23 24 28 26 28 29 29 30 31 32 32 32 33 34 33 33 29 30 31 30 28 28 28 26 26 26 26 26 25 25 25 25 24 24 24 24 23 22 22 22 21 21 20 20 19 19 19
22 22 23 25 27 27 30 29 29 31 32 32 32 32 32 33 33 33 31 29 30 31 30 29 28 27 27 27 26 26 25 25 24 24 24 24 24 23 23 22 21 21 21 20 20 20 19 18 18
22 22 27 27 26 28 30 29 31 31 32 31 32 32 32 33 33 33 31 31 31 30 30 29 29 27 27 27 27 26 26 25 24 24 24 24 24 23 23 22 22 21 20 20 20 19 19 18 18
22 24 25 26 27 27 29 30 29 30 32 31 32 33 31 31 32 32 33 32 31 29 30 30 29 28 27 27 27 26 25 25 25 25 24 24 24 24 23 22 22 20 19 19 18 18 18 18 18
22 24 26 25 27 27 28 29 29 29 30 32 32 33 33 32 31 32 33 32 31 28 29 30 29 28 27 27 27 27 26 25 25 25 25 24 24 23 23 22 22 21 20 19 18 18 18 18 18
24 23 25 26 27 28 29 30 29 31 31 32 32 32 33 30 30 28 29 31 29 30 30 30 29 28 27 27 26 26 26 25 25 25 25 25 24 23 23 22 22 21 20 18 18 18 18 18 18
25 23 24 25 26 28 29 31 31 32 32 32 32 32 33 33 29 30 29 29 30 30 30 29 27 27 26 26 26 26 25 26 25 25 25 24 24 23 23 22 22 22 21 20 19 19 18 18 18
25 25 26 26 26 28 29 30 31 31 32 32 32 32 33 32 28 29 28 27 28 29 28 28 27 24 24 24 26 26 26 25 25 25 24 24 23 23 23 22 22 22 21 20 19 19 19 19 18
23 25 25 26 26 28 28 29 30 30 30 31 33 32 31 26 26 27 26 26 25 26 26 26 26 24 22 21 21 25 26 26 25 24 24 23 20 19 20 20 21 22 21 20 19 18 19 19 18
24 24 26 27 27 27 29 29 29 30 30 30 31 31 30 30 29 29 29 29 27 27 27 27 27 26 24 23 22 21 21 21 22 21 20 20 20 19 19 20 21 21 20 20 19 19 18 18 19
24 24 26 26 27 27 28 29 29 29 29 30 31 31 31 30 31 30 31 30 30 29 27 27 27 26 24 23 22 22 21 21 20 20 20 20 19 19 19 19 19 19 19 19 19 19 19 19 19
23 25 25 26 26 26 26 28 28 28 29 30 29 29 29 30 30 31 31 31 31 30 28 28 27 27 26 25 23 22 21 21 21 20 19 19 19 18 19 19 20 19 19 19 18 19 19 19 18
23 25 25 26 26 25 25 26 27 28 29 29 29 28 29 29 29 29 29 29 29 30 32 29 28 29 29 27 24 23 23 21 21 20 19 19 19 18 19 19 19 19 20 19 19 19 18 18 18
25 24 24 25 25 25 25 26 27 27 28 28 28 28 29 29 29 29 28 28 28 30 31 32 31 31 29 28 26 25 22 21 20 20 20 18 19 18 18 18 18 20 21 21 18 18 18 18 18
23 22 24 24 24 24 24 25 26 27 27 27 27 28 29 29 29 29 29 28 27 29 30 31 31 30 30 30 28 24 23 20 20 20 19 18 18 17 17 18 18 19 19 20 19 18 17 18 19
21 22 22 25 23 24 24 24 28 29 28 28 28 29 29 29 29 29 28 27 27 29 29 31 30 30 29 28 28 24 21 20 20 20 19 17 17 17 17 18 18 19 17 19 17 18 18 18 18
21 22 22 23 25 24 24 25 27 28 28 28 28 28 28 28 28 26 26 26 28 29 30 30 29 29 28 27 25 22 20 19 20 19 18 17 17 17 17 18 17 18 17 18 17 18 18 18 19
20 20 22 23 24 24 24 24 26 27 27 27 28 28 28 28 27 27 26 27 28 29 29 29 28 26 25 23 21 20 20 19 19 18 18 17 17 17 17 17 16 16 16 17 18 17 17 18 18
20 20 21 22 24 24 24 25 25 26 26 26 27 27 27 27 27 27 26 26 26 28 28 28 27 25 24 20 20 20 20 19 18 18 17 18 18 17 16 17 16 18 18 18 18 17 17 16 15
18 18 19 20 21 21 23 23 24 23 24 25 26 26 26 26 26 26 25 25 25 26 27 28 28 27 25 21 20 20 20 18 17 18 18 18 17 17 17 17 18 18 17 17 17 16 16 16 15
18 18 19 19 20 21 21 21 22 24 24 25 25 25 25 25 25 26 26 26 26 25 27 27 28 27 25 21 19 19 18 17 18 18 18 17 17 17 17 19 19 17 17 18 17 16 16 16 14
17 19 19 19 19 20 21 20 23 24 24 24 25 25 25 25 25 25 26 26 25 26 25 26 26 24 22 19 20 20 22 22 21 19 19 18 18 17 18 19 18 17 18 18 17 17 15 15 15
17 19 19 19 19 19 20 19 22 24 24 25 25 25 25 26 26 26 26 26 25 25 24 24 22 20 19 19 20 21 22 21 20 19 18 18 18 17 19 19 18 18 17 18 16 15 15 14 17
19 18 19 19 19 17 19 19 22 24 25 25 26 26 25 25 25 25 25 25 24 24 23 21 20 19 18 19 19 20 20 20 20 19 19 18 18 17 17 18 19 18 18 17 16 15 15 14 15
18 17 16 16 17 17 20 19 21 23 23 24 24 25 26 25 25 25 25 26 25 23 22 20 20 19 19 19 19 20 20 20 19 19 20 19 18 18 17 17 17 17 17 17 16 15 15 15 15
17 18 18 17 18 19 19 19 22 23 24 24 24 24 25 25 25 25 25 24 24 23 20 20 20 19 19 19 19 19 19 20 20 19 20 19 20 18 18 17 17 17 17 16 15 15 15 15 15
17 16 19 17 17 19 20 20 22 23 24 25 25 25 24 24 24 24 23 22 22 20 18 20 20 19 19 19 19 19 19 19 19 18 19 18 18 18 17 17 16 16 16 15 15 16 15 15 15
18 19 16 17 17 17 19 20 22 23 23 22 22 23 23 23 25 23 22 20 18 18 19 20 20 20 19 19 19 19 19 19 18 18 18 18 17 17 17 16 16 16 16 16 15 15 15 16 15
17 17 17 18 19 18 19 21 22 23 21 20 21 23 23 23 23 21 20 18 18 19 20 19 19 19 19 19 19 18 18 18 18 18 17 17 17 17 17 16 16 16 16 16 16 16 16 16 16
15 16 16 17 17 18 18 19 22 21 21 20 21 22 23 23 23 19 18 17 19 20 20 19 19 20 19 19 19 19 18 18 18 17 17 17 17 17 17 16 17 16 16 16 16 16 16 16 15
Height
788 789 790 791 800 802 801 788 774 772 767 752 751 754 753 749 760 774 741 742 745 750 755 760 765 768 769 773 777 780 784 788 791 793 793 795 796 798 800 801 801 802 803 804 805 805 806 806 807
787 789 789 791 802 806 789 777 775 765 753 747 748 750 754 754 742 740 741 742 746 750 754 758 763 767 768 771 775 778 781 785 789 791 792 793 794 796 798 800 801 802 803 804 804 806 807 808 808
788 789 787 791 798 797 785 770 763 759 752 752 749 742 746 745 737 737 739 742 745 750 755 757 762 766 767 769 772 775 779 783 787 788 791 793 793 794 796 798 799 801 802 803 804 804 806 807 808
789 791 791 795 792 783 773 764 762 762 750 748 745 750 739 735 734 735 738 741 745 749 753 757 762 764 765 766 769 772 776 780 783 784 787 790 790 792 794 795 797 799 800 802 802 804 805 806 807
790 789 792 795 786 776 768 763 762 764 758 749 745 746 742 733 733 734 737 740 744 748 752 755 759 763 765 765 767 769 774 777 778 781 783 786 788 789 790 793 795 797 798 800 802 803 804 804 804
791 791 797 790 781 772 763 758 759 754 752 747 745 744 738 732 733 734 737 740 744 747 750 752 757 761 764 765 769 771 773 776 777 779 781 783 786 788 790 791 793 796 797 799 800 802 803 804 804
785 794 792 786 782 774 762 751 754 749 749 745 736 746 736 731 734 735 738 741 745 748 751 751 755 759 762 764 767 769 773 774 776 779 781 782 783 786 788 790 791 793 797 798 798 800 802 803 803
778 783 782 778 779 772 755 750 744 746 745 735 734 745 743 734 735 737 738 742 744 746 748 750 753 756 758 760 762 765 769 772 774 776 779 783 784 784 786 788 790 791 793 796 798 799 801 802 803
777 784 779 773 776 765 753 754 743 740 744 738 733 735 736 736 737 739 739 742 744 744 746 748 750 754 756 760 761 762 765 767 768 772 775 779 782 784 785 786 787 790 792 793 796 799 800 801 802
770 773 766 755 756 759 751 752 747 748 748 743 737 735 736 738 739 739 740 738 741 741 741 743 745 748 751 754 756 760 762 763 764 766 770 774 777 780 783 784 786 789 792 793 795 797 799 799 800
761 759 752 749 749 751 752 749 745 749 750 741 739 734 735 736 736 737 739 740 739 739 740 739 741 744 748 750 751 753 757 757 759 761 764 770 774 777 780 783 786 788 789 792 793 795 796 796 796
760 748 747 747 749 750 753 745 745 744 739 735 736 736 737 736 734 733 733 734 735 736 734 736 737 738 741 745 745 746 748 750 751 754 759 764 766 769 773 777 781 783 785 787 789 790 791 792 793
754 744 746 747 747 746 747 743 744 738 732 732 732 732 731 732 733 732 731 732 730 730 729 730 733 733 734 736 737 738 737 740 742 747 750 754 759 763 769 773 775 777 778 777 782 786 789 791 792
737 744 743 744 746 747 749 732 739 732 729 724 727 725 725 726 728 726 729 728 727 726 725 726 727 727 729 729 728 727 730 732 736 738 743 748 753 756 760 764 768 771 773 775 779 782 784 786 788
745 749 744 743 743 744 744 739 717 726 729 728 725 722 718 718 720 718 720 723 723 721 721 722 723 723 723 722 720 720 720 724 727 733 737 740 746 750 756 761 762 766 770 773 775 778 779 780 783
749 750 751 731 742 735 744 735 701 713 717 713 714 709 706 707 711 712 715 715 716 717 717 717 716 714 714 714 713 713 717 717 722 727 731 734 737 743 749 754 757 761 766 768 771 774 776 775 779
745 739 736 734 725 733 738 715 710 711 712 707 706 704 704 703 704 708 708 709 710 711 711 708 707 707 706 706 706 707 711 714 717 722 726 729 734 738 743 747 751 758 762 764 768 770 771 772 774
738 738 730 730 725 730 730 713 714 711 712 707 704 701 700 699 698 699 703 702 702 703 702 701 700 698 699 699 700 702 707 710 712 716 720 724 728 732 738 743 748 754 757 762 764 766 768 770 771
739 736 733 727 722 724 721 712 711 711 709 704 701 699 696 695 695 696 696 695 695 694 693 695 694 692 691 692 696 698 701 704 708 712 715 719 724 728 733 740 744 749 753 756 760 764 766 768 769
744 745 744 735 728 730 720 717 712 714 707 701 697 693 691 690 690 690 690 688 686 685 685 686 686 683 681 685 687 692 696 700 704 708 712 716 721 724 729 735 739 744 750 755 758 760 763 765 767
738 740 739 741 731 725 728 721 712 702 700 696 691 689 688 687 685 683 681 680 678 677 676 677 676 675 677 680 684 688 692 697 701 705 709 713 718 722 727 731 737 743 748 752 754 756 759 761 763
737 732 732 735 737 735 723 722 701 695 693 691 689 685 682 679 678 675 671 670 669 668 670 670 670 671 673 676 680 683 685 690 695 702 708 712 716 721 725 730 736 741 745 748 750 753 755 757 760
733 730 731 732 734 736 729 736 690 688 686 683 681 677 674 670 668 665 663 662 661 664 664 665 665 668 670 672 676 680 683 688 694 701 706 711 715 719 724 730 735 739 742 745 748 750 751 754 757
721 726 728 731 734 737 730 735 683 684 677 674 672 670 670 666 661 658 655 656 655 657 659 660 663 665 668 670 674 678 680 686 693 700 705 710 714 720 725 730 733 737 740 743 745 748 750 752 754
723 725 731 739 734 726 714 727 689 676 673 673 674 670 664 661 654 650 648 647 648 651 654 656 659 662 665 669 675 677 681 686 693 698 704 708 715 721 725 728 732 736 738 741 743 746 748 750 752
719 717 711 720 714 712 717 712 687 673 667 666 668 666 662 658 653 649 645 643 643 646 650 653 656 660 665 671 676 679 683 688 695 699 704 710 715 719 723 727 731 734 737 740 742 745 747 747 750
715 720 708 714 710 702 699 689 678 672 666 661 661 663 661 656 650 642 639 640 641 644 648 651 655 659 666 671 675 681 685 690 695 699 705 710 715 719 723 726 730 733 736 739 741 743 744 746 747
706 704 718 713 713 709 691 690 677 667 670 671 671 669 663 656 644 640 639 641 643 645 647 652 656 661 667 673 677 682 688 692 696 702 707 711 715 719 722 726 729 733 736 738 740 741 742 743 744
709 708 708 703 700 697 689 674 661 664 673 677 673 666 658 653 645 644 643 645 646 645 648 653 659 664 670 675 679 685 690 694 698 704 709 712 716 719 722 726 730 733 735 737 738 738 739 740 741
715 713 712 704 704 699 699 686 663 668 670 673 668 661 657 654 647 649 649 649 647 648 651 656 662 666 671 677 682 686 691 696 701 707 710 713 716 720 723 727 730 732 734 734 735 736 737 738 738
Wind_Speed
10 5 5 2 4 2 4 5 4 4 3 3 4 4 17 6 13 3 2 20 14 30 30 34 32 32 31 29 27 24 22 21 20 19 18 17 16 15 14 13 12 10 9 8 7 6 5 5 4
10 7 3 1 3 6 5 6 8 10 5 12 7 5 9 8 5 3 5 22 17 29 30 34 33 32 31 30 28 26 24 22 21 19 18 17 16 14 13 12 11 10 9 9 8 6 5 4 4
10 2 3 3 4 10 4 6 10 0 13 11 3 3 4 4 6 2 5 25 20 28 29 34 33 33 31 30 29 28 27 26 24 22 20 19 18 16 16 15 14 12 11 9 9 8 6 4 2
5 3 1 5 13 11 7 1 3 11 5 2 6 3 2 5 2 6 14 24 20 27 29 32 32 34 33 31 29 29 29 28 27 25 24 22 20 19 17 16 14 13 12 10 9 6 6 5 2
1 1 5 6 16 8 8 10 7 11 7 8 5 3 3 2 5 14 21 26 22 25 27 32 33 35 35 32 32 31 30 30 28 26 25 23 22 21 19 17 15 14 13 11 10 8 7 6 6
3 2 5 15 16 12 11 9 7 13 13 8 5 2 3 1 7 13 18 24 20 23 27 31 35 36 36 33 31 30 30 30 28 28 27 25 24 22 20 18 15 13 12 12 10 9 7 6 6
5 3 8 7 9 15 16 9 11 10 6 5 2 2 1 3 6 13 16 20 20 20 26 31 30 37 36 33 32 31 32 31 29 29 28 27 25 23 21 18 16 14 12 12 11 9 8 6 6
5 3 11 9 13 15 4 4 3 9 5 3 0 1 3 2 7 12 12 16 18 19 24 29 31 28 32 31 35 33 33 32 31 31 30 27 25 25 22 20 17 15 13 12 11 10 8 7 5
4 7 13 19 14 10 2 6 3 3 5 2 1 2 5 5 8 9 10 12 13 17 21 25 28 28 26 24 26 35 35 35 34 33 32 30 24 23 22 21 19 17 14 12 12 10 9 7 6
10 11 20 11 15 8 13 7 4 4 4 3 4 7 6 5 4 2 5 12 17 19 24 27 31 32 28 28 28 28 27 29 32 31 29 31 25 23 22 22 21 18 15 12 12 11 10 8 7
11 20 20 17 18 13 20 17 8 8 12 12 8 1 7 10 5 5 7 12 16 20 18 25 30 32 29 27 28 30 28 29 30 32 33 28 23 22 22 19 19 17 17 13 13 13 12 12 10
15 21 22 15 11 8 17 15 13 16 22 13 13 11 12 14 11 11 14 14 16 16 22 23 27 30 31 31 32 33 31 31 31 29 31 30 27 25 25 22 20 19 17 17 15 15 15 14 13
25 23 14 22 15 13 11 21 19 20 20 19 20 18 19 18 15 16 13 19 21 19 27 26 27 29 33 35 36 38 40 34 33 30 31 34 29 25 24 23 22 21 23 22 16 15 12 13 14
13 20 22 16 15 15 18 28 18 16 14 18 14 18 19 17 15 13 14 19 19 23 26 24 21 25 30 35 38 43 39 34 30 30 30 31 29 26 27 27 25 27 29 23 15 12 13 16 14
18 19 13 18 23 16 6 24 36 22 19 24 23 22 21 19 20 17 19 20 19 21 19 21 25 25 27 35 39 38 37 32 30 27 26 26 28 25 24 25 26 29 26 24 20 15 15 14 17
11 17 22 26 11 9 15 31 34 17 21 26 25 23 21 18 15 18 19 17 19 19 20 27 30 29 28 30 34 32 26 26 24 23 21 23 25 26 23 25 25 27 20 24 16 14 15 16 15
14 21 26 24 22 15 19 35 27 17 15 18 16 15 15 15 14 16 17 16 22 23 29 35 30 29 27 26 25 24 22 22 20 19 19 20 21 23 23 21 22 24 18 23 16 15 16 17 16
18 24 21 18 13 22 24 34 23 17 16 18 17 17 19 19 19 21 17 23 27 30 33 33 29 24 19 17 16 15 17 18 17 17 18 18 19 20 20 17 17 18 18 18 20 16 13 13 11
10 13 19 18 9 21 25 28 24 19 22 24 24 21 21 21 18 22 23 23 24 26 29 30 23 17 11 9 11 14 18 16 16 16 16 17 18 18 18 16 15 20 22 23 19 13 12 11 10
22 18 10 8 9 8 16 21 16 15 19 20 21 22 23 22 20 16 21 22 23 24 30 29 25 19 13 11 12 9 14 12 13 13 14 15 17 18 17 17 22 23 18 16 16 14 8 8 8
18 22 20 10 6 12 12 22 23 22 20 21 23 22 23 20 20 18 17 21 22 21 28 26 23 19 14 13 13 11 11 8 11 13 13 16 16 16 16 18 21 19 17 17 14 12 11 8 7
19 11 15 20 12 13 4 11 16 17 18 19 19 20 21 20 18 19 19 18 23 25 20 21 20 15 12 17 17 19 13 12 10 15 14 14 15 15 18 19 18 17 15 14 13 13 11 9 8
18 11 9 5 9 11 18 10 16 12 20 19 16 20 21 22 21 21 22 21 27 21 18 21 13 10 13 18 18 18 12 9 13 15 17 14 14 14 17 17 17 16 15 15 11 11 12 12 10
13 16 21 17 13 15 16 12 23 17 21 18 17 15 13 16 17 17 19 22 23 19 14 9 10 10 14 16 16 16 17 16 17 17 17 15 14 13 15 15 15 15 14 11 9 8 10 11 10
9 12 9 10 11 17 11 13 23 9 6 1 8 15 15 11 12 13 14 13 15 13 9 9 12 14 16 15 15 15 18 19 20 20 18 17 15 14 15 14 14 12 10 8 8 10 10 11 10
15 14 7 15 12 15 13 13 9 10 16 12 8 7 10 12 11 12 13 11 12 10 10 12 15 17 17 16 16 16 20 18 18 17 17 15 14 13 15 13 12 10 8 8 9 9 10 9 11
12 10 16 5 1 8 10 17 16 16 14 12 12 8 13 17 17 16 14 7 6 9 12 16 19 19 19 19 19 17 17 17 17 17 15 14 12 13 13 12 10 9 9 9 9 10 10 9 10
14 10 9 7 6 8 9 15 9 3 9 9 12 14 17 17 21 18 8 3 4 10 15 18 20 21 21 20 20 18 17 17 18 17 15 14 13 12 12 10 10 10 10 10 10 9 9 9 7
7 7 8 9 12 4 3 3 4 7 9 8 12 17 18 18 20 14 5 2 8 15 18 20 20 22 21 20 19 19 18 17 17 15 14 13 12 11 11 11 11 11 11 10 10 9 8 7 6
3 4 7 8 20 11 10 5 6 9 8 13 17 20 19 17 18 11 3 3 10 16 20 20 21 21 21 20 20 19 18 16 15 13 13 13 13 12 12 11 10 10 9 9 8 8 7 7 6
Wind_Direction
199 178 148 209 203 248 239 238 247 255 237 158 177 175 182 173 165 198 314 175 176 177 178 181 186 186 183 182 182 183 185 185 185 182 178 176 176 173 172 170 166 164 158 153 144 134 127 124 118
182 152 112 125 227 220 234 233 230 235 281 318 190 166 187 207 223 271 143 172 172 179 181 184 188 190 186 184 183 184 186 189 189 184 182 179 176 173 170 170 167 163 161 161 151 140 134 126 123
153 154 191 201 214 223 237 214 230 301 309 280 283 191 173 205 186 212 190 170 171 180 184 189 189 194 190 188 187 187 188 190 189 188 188 185 180 178 177 175 174 172 168 165 162 158 157 157 152
163 177 148 225 229 235 233 181 117 323 306 217 254 242 223 215 177 164 165 172 177 182 187 192 194 199 195 192 192 192 192 192 191 190 191 189 186 183 180 178 175 173 173 174 172 175 177 174 183
105 202 224 233 241 248 241 269 297 290 285 277 236 214 235 216 177 163 167 179 182 185 191 195 200 204 202 198 198 197 196 197 197 196 197 195 191 188 184 181 178 178 178 181 184 188 198 201 214
170 295 225 231 237 241 253 245 268 271 279 268 225 265 209 116 158 162 171 183 188 193 196 198 204 207 208 205 207 204 203 204 204 203 203 200 197 194 189 183 181 184 182 188 192 201 207 223 239
201 197 241 250 259 257 253 247 240 264 277 218 157 231 11 193 167 177 177 186 193 200 205 204 206 210 213 211 213 212 213 211 211 212 213 209 203 199 196 190 186 185 189 193 196 204 215 230 246
208 229 236 236 241 253 245 219 235 240 231 306 253 235 22 357 175 168 180 191 199 208 214 211 210 212 213 215 217 219 219 217 218 217 221 218 213 208 202 197 195 193 191 199 202 206 217 232 253
151 228 238 233 221 231 266 240 211 323 263 282 227 113 14 82 143 159 161 189 205 215 219 217 217 218 216 217 221 222 225 225 224 223 223 223 214 211 206 203 203 202 200 199 209 216 221 233 258
198 221 230 227 224 232 243 237 280 300 277 263 246 142 46 60 150 178 228 206 213 222 225 224 223 224 222 221 224 223 223 223 223 221 218 217 213 209 205 208 209 210 208 210 214 221 227 232 238
209 231 228 234 228 233 254 258 251 261 265 252 254 302 321 328 324 307 279 251 239 241 240 237 232 230 227 227 228 225 225 225 225 223 219 216 215 213 210 209 208 209 213 217 223 226 226 228 226
235 231 238 242 235 231 245 266 250 241 252 277 279 296 292 288 283 285 290 278 273 264 258 254 247 239 240 237 235 234 227 227 227 223 219 215 214 213 206 207 205 206 206 213 216 221 223 226 226
233 233 239 244 243 245 272 262 264 258 262 267 274 276 273 268 263 262 256 275 274 275 279 270 259 255 254 248 242 239 236 229 228 225 221 217 216 215 210 211 209 210 215 214 218 226 228 236 236
235 236 240 242 235 242 248 265 258 247 256 270 271 268 266 265 258 253 260 259 261 271 277 273 267 261 256 257 253 249 240 234 230 225 223 221 217 216 212 213 214 218 223 223 221 224 232 241 239
253 253 242 234 233 240 226 276 254 250 248 257 262 261 262 266 266 254 255 251 258 269 265 266 269 270 265 264 259 250 242 233 229 228 221 218 215 215 219 220 220 223 225 229 233 236 237 241 247
232 235 243 233 203 226 193 252 258 261 259 258 259 267 274 269 260 262 258 259 267 267 268 280 280 280 272 261 256 247 238 230 229 226 220 214 210 215 217 224 224 225 225 227 229 236 238 241 238
224 234 228 239 218 216 197 245 252 257 262 261 264 269 271 275 270 247 256 260 277 281 287 287 284 282 274 264 246 242 236 229 226 220 213 208 209 219 220 220 220 224 222 225 230 235 235 242 245
231 235 247 240 222 218 223 246 250 246 268 263 268 272 274 272 269 279 264 271 280 287 284 278 286 285 270 250 240 228 225 225 216 211 207 204 211 215 210 214 212 208 214 220 227 230 229 239 247
255 280 251 248 223 223 228 246 248 245 251 260 262 266 268 268 275 275 275 270 271 275 275 283 282 286 269 218 209 218 219 211 206 203 202 204 209 203 200 198 199 208 212 214 216 216 220 222 234
247 250 258 265 243 244 247 256 257 257 255 259 264 265 268 275 273 270 269 273 267 263 273 276 288 294 287 226 208 199 187 203 193 193 197 200 197 196 191 187 193 198 197 201 199 199 197 215 214
237 240 236 252 287 270 271 269 264 255 251 258 258 262 267 266 269 272 267 265 272 272 276 283 296 294 274 214 187 168 148 141 174 184 185 189 185 184 184 188 192 186 187 192 196 202 205 209 208
242 225 234 235 246 246 228 276 258 256 249 245 256 260 263 266 261 257 262 263 258 265 275 286 293 279 241 201 185 182 174 164 183 179 176 172 174 174 183 187 187 187 191 196 202 212 209 199 200
242 222 203 206 240 265 250 275 268 250 260 262 264 262 266 266 266 260 261 266 264 264 272 282 267 238 204 190 186 184 168 160 152 157 156 156 160 167 175 179 183 193 198 204 202 200 211 208 208
229 221 222 239 247 249 241 236 276 259 262 267 262 265 286 288 276 266 265 266 263 266 259 226 200 186 180 178 184 179 158 147 144 149 150 153 148 157 165 174 188 194 200 197 196 198 200 199 202
215 178 182 209 214 237 216 214 244 14 151 166 303 296 310 308 290 288 281 267 257 240 222 200 179 170 167 165 170 163 154 148 149 149 149 147 151 161 176 182 184 185 191 198 194 190 194 197 200
222 206 210 213 209 226 192 228 236 234 265 274 290 290 313 324 327 306 299 280 257 224 194 183 170 157 156 157 152 146 147 146 151 154 153 159 162 167 177 182 183 185 190 182 186 192 201 200 208
195 215 233 300 311 220 195 245 271 262 278 284 304 324 345 341 334 328 318 285 231 185 175 169 160 147 150 149 141 141 143 146 148 149 150 149 151 160 170 178 176 178 174 182 188 198 201 200 206
211 205 200 210 220 216 210 236 239 175 153 51 22 1 338 332 343 339 320 283 186 164 155 151 147 143 143 141 141 140 144 142 143 144 146 146 152 160 170 169 169 171 179 185 188 188 194 191 198
182 206 224 241 237 267 247 176 225 193 89 33 3 355 345 341 344 341 332 208 170 146 143 140 138 136 136 137 135 136 137 135 135 139 143 148 154 158 154 159 165 175 182 189 191 194 194 194 208
309 281 277 235 222 242 273 280 92 114 58 6 352 349 347 342 344 337 323 181 152 147 141 138 139 138 137 137 136 132 130 131 137 143 146 149 146 145 154 161 168 176 188 194 202 204 204 199 203